Weather History for Pascagoula, MS

Change the Weather History Date:

Saturday, January 26, 2013

  Actual Average Record
Temperature  
Mean Temperature 58 °F -  
Max Temperature 71 °F 60 °F 78 °F (1950)
Min Temperature 46 °F 40 °F 18 °F (1963)
Degree Days  
Heating Degree Days 6    
Growing Degree Days 8 (Base 50)    
Moisture  
Dew Point 52 °F    
Average Humidity 92    
Maximum Humidity 100    
Minimum Humidity 68    
Precipitation  
Precipitation 0.00 in - - ()
Sea Level Pressure  
Sea Level Pressure 30.23 in    
Wind  
Wind Speed 1 mph (SW)    
Max Wind Speed 9 mph    
Max Gust Speed -    
Visibility 3 miles    
Events Fog    
Averages and records for this station are not official NWS values.
T = Trace of Precipitation, MM = Missing Value Source: NWS Daily Summary

Daily Weather History Graph

Daily Weather History Graph

Search for Another Location

Airport:

Trip Planner

Search our weather history database for the weather conditions in past years. The results will help you decide how hot, cold, wet, or windy it might be!

Date:

Astronomy

Jan. 26, 2013 Rise Set
Actual Time 6:48 AM CST 5:25 PM CST
Civil Twilight 6:22 AM CST 5:51 PM CST
Nautical Twilight 5:53 AM CST 6:20 PM CST
Astronomical Twilight 5:25 AM CST 6:48 PM CST
Moon 5:16 PM CST (1/26) 6:08 AM CST (1/26)
Length of Visible Light 11h 28m
Length of Day
10h 37m
Full, 100% of the Moon is Illuminated
Jan 26
Full
Jan 26
Full
Feb 3
Last Quarter
Feb 10
New
Feb 17
First Quarter

Hourly Weather History & Observations

Time (CST) Temp. Dew Point Humidity Pressure Visibility Wind Dir Wind Speed Gust Speed Precip Events Conditions
12:53 AM 48.0 °F 46.0 °F 93% 30.21 in 6.0 mi Calm Calm - N/A   Clear
1:27 AM 50.0 °F 48.2 °F 94% 30.20 in 1.8 mi Calm Calm - N/A   Clear
1:53 AM 51.1 °F 50.0 °F 96% 30.20 in 1.5 mi Calm Calm - N/A   Clear
2:06 AM 55.4 °F 53.6 °F 94% 30.19 in 3.0 mi Calm Calm - N/A   Clear
2:24 AM 50.0 °F 48.2 °F 94% 30.19 in 2.5 mi Calm Calm - N/A   Clear
2:39 AM 48.2 °F 48.2 °F 100% 30.19 in 0.8 mi Calm Calm - N/A   Clear
2:49 AM 48.2 °F 46.4 °F 93% 30.20 in 0.2 mi Calm Calm - N/A Fog Fog
2:53 AM 48.9 °F 46.9 °F 93% 30.20 in 0.2 mi Calm Calm - N/A Fog Fog
3:53 AM 46.9 °F 46.0 °F 97% 30.20 in 0.2 mi Calm Calm - N/A Fog Fog
4:00 AM 48.2 °F 46.4 °F 93% 30.20 in 0.5 mi Calm Calm - N/A Fog Fog
4:08 AM 46.4 °F 46.4 °F 100% 30.20 in 0.2 mi Calm Calm - N/A Fog Fog
4:27 AM 46.4 °F 46.4 °F 100% 30.20 in 0.2 mi Calm Calm - N/A Fog Fog
4:44 AM 46.4 °F 46.4 °F 100% 30.20 in 0.8 mi Calm Calm - N/A   Mist
4:53 AM 48.0 °F 46.0 °F 93% 30.21 in 0.5 mi Calm Calm - N/A Fog Fog
5:01 AM 48.2 °F 46.4 °F 93% 30.20 in 0.2 mi Calm Calm - N/A Fog Fog
5:53 AM 48.0 °F 46.9 °F 96% 30.22 in 0.2 mi Calm Calm - N/A Fog Fog
5:59 AM 48.2 °F 48.2 °F 100% 30.21 in 0.5 mi Calm Calm - N/A Fog Fog
6:11 AM 48.2 °F 46.4 °F 93% 30.22 in 0.8 mi Calm Calm - N/A   Mostly Cloudy
6:23 AM 48.2 °F 46.4 °F 93% 30.22 in 0.2 mi Calm Calm - N/A Fog Fog
6:53 AM 46.0 °F 46.0 °F 100% 30.24 in 0.2 mi Calm Calm - N/A Fog Fog
7:01 AM 46.4 °F 46.4 °F 100% 30.23 in 0.2 mi Calm Calm - N/A Fog Fog
7:20 AM 48.2 °F 46.4 °F 93% 30.24 in 0.2 mi Calm Calm - N/A Fog Fog
7:45 AM 51.8 °F 50.0 °F 94% 30.24 in 1.0 mi Calm Calm - N/A   Mist
7:49 AM 51.8 °F 51.8 °F 100% 30.24 in 0.8 mi Calm Calm - N/A   Mist
7:53 AM 52.0 °F 51.1 °F 97% 30.25 in 0.5 mi Calm Calm - N/A Fog Fog
8:00 AM 53.6 °F 53.6 °F 100% 30.24 in 3.0 mi Calm Calm - N/A   Partly Cloudy
8:53 AM 64.0 °F 60.1 °F 87% 30.26 in 10.0 mi WSW 5.8 mph - N/A   Clear
9:53 AM 68.0 °F 60.1 °F 76% 30.27 in 10.0 mi North 5.8 mph - N/A   Partly Cloudy
10:53 AM 71.1 °F 60.1 °F 68% 30.27 in 10.0 mi NNW 6.9 mph - N/A   Partly Cloudy
11:53 AM 70.0 °F 60.1 °F 71% 30.24 in 10.0 mi Calm Calm - N/A   Partly Cloudy
12:53 PM 71.1 °F 60.1 °F 68% 30.22 in 10.0 mi Variable 3.5 mph - N/A   Clear
1:53 PM 71.1 °F 60.1 °F 68% 30.21 in 10.0 mi SSW 9.2 mph - N/A   Mostly Cloudy
2:53 PM 70.0 °F 59.0 °F 68% 30.21 in 10.0 mi South 6.9 mph - N/A   Mostly Cloudy
3:53 PM 69.1 °F 59.0 °F 70% 30.21 in 10.0 mi Variable 3.5 mph - N/A   Mostly Cloudy
4:53 PM 66.9 °F 57.9 °F 73% 30.21 in 10.0 mi SSW 4.6 mph - N/A   Clear
5:53 PM 63.0 °F 57.9 °F 84% 30.22 in 10.0 mi SW 3.5 mph - N/A   Clear
6:53 PM 60.1 °F 57.0 °F 90% 30.22 in 9.0 mi Calm Calm - N/A   Clear
7:19 PM 57.2 °F 55.4 °F 94% 30.22 in 1.2 mi Calm Calm - N/A   Clear
7:26 PM 57.2 °F 55.4 °F 94% 30.22 in 0.5 mi Calm Calm - N/A Fog Fog
7:53 PM 55.0 °F 53.1 °F 93% 30.23 in 0.5 mi Calm Calm - N/A Fog Fog
8:02 PM 55.4 °F 53.6 °F 94% 30.22 in 0.2 mi Calm Calm - N/A Fog Fog
8:13 PM 53.6 °F 51.8 °F 94% 30.23 in 0.5 mi Calm Calm - N/A Fog Fog
8:18 PM 53.6 °F 51.8 °F 94% 30.23 in 1.0 mi Calm Calm - N/A   Mostly Cloudy
8:21 PM 53.6 °F 51.8 °F 94% 30.23 in 3.0 mi East 4.6 mph - N/A   Mostly Cloudy
8:53 PM 57.0 °F 55.9 °F 96% 30.24 in 4.0 mi Calm Calm - N/A   Mostly Cloudy
8:56 PM 57.2 °F 55.4 °F 94% 30.24 in 1.8 mi Calm Calm - N/A   Mostly Cloudy
9:08 PM 53.6 °F 53.6 °F 100% 30.24 in 3.0 mi Calm Calm - N/A   Mostly Cloudy
9:20 PM 55.4 °F 55.4 °F 100% 30.24 in 1.8 mi Calm Calm - N/A   Mostly Cloudy
9:35 PM 53.6 °F 53.6 °F 100% 30.25 in 0.2 mi Calm Calm - N/A Fog Fog
9:53 PM 53.1 °F 52.0 °F 96% 30.26 in 0.2 mi Calm Calm - N/A Fog Fog
9:58 PM 55.4 °F 53.6 °F 94% 30.26 in 1.0 mi Calm Calm - N/A   Overcast
10:05 PM 53.6 °F 53.6 °F 100% 30.26 in 3.0 mi Calm Calm - N/A   Overcast
10:13 PM 53.6 °F 53.6 °F 100% 30.26 in 1.5 mi Calm Calm - N/A   Mostly Cloudy
10:21 PM 53.6 °F 53.6 °F 100% 30.25 in 0.5 mi Calm Calm - N/A Fog Fog
10:43 PM 53.6 °F 51.8 °F 94% 30.26 in 1.0 mi Calm Calm - N/A   Scattered Clouds
10:53 PM 54.0 °F 52.0 °F 93% 30.26 in 2.0 mi Calm Calm - N/A   Scattered Clouds
11:04 PM 53.6 °F 51.8 °F 94% 30.25 in 1.0 mi Calm Calm - N/A   Mist
11:11 PM 51.8 °F 51.8 °F 100% 30.26 in 0.5 mi Calm Calm - N/A Fog Fog
11:17 PM 51.8 °F 50.0 °F 94% 30.25 in 1.0 mi Calm Calm - N/A   Clear
11:25 PM 51.8 °F 51.8 °F 100% 30.26 in 0.5 mi Calm Calm - N/A Fog Fog
11:35 PM 53.6 °F 51.8 °F 94% 30.26 in 1.0 mi Calm Calm - N/A   Scattered Clouds
11:53 PM 52.0 °F 51.1 °F 97% 30.27 in 0.8 mi Calm Calm - N/A   Mostly Cloudy